San Antonio, TX

8:03 AM CST on January 16, 2017 (GMT -0600)
Stinson Municipal

Weather History for KSSF - November, 2012

Change the Weather History Date:

Thursday, November 29, 2012

  Actual Average Record
Temperature  
Mean Temperature 56 °F -  
Max Temperature 70 °F 65 °F 82 °F (2010)
Min Temperature 42 °F 46 °F 28 °F (2003)
Degree Days  
Heating Degree Days 9    
Growing Degree Days 6 (Base 50)    
Moisture  
Dew Point 49 °F    
Average Humidity 78    
Maximum Humidity 97    
Minimum Humidity 55    
Precipitation  
Precipitation 0.00 in - - ()
Sea Level Pressure  
Sea Level Pressure 30.20 in    
Wind  
Wind Speed 1 mph (SE)    
Max Wind Speed 7 mph    
Max Gust Speed -    
Visibility 8 miles    
Events      
Averages and records for this station are not official NWS values.
T = Trace of Precipitation, MM = Missing Value Source: NWS Daily Summary

Daily Weather History Graph

Daily Weather History Graph

Search for Another Location

Airport or City:

Trip Planner

Search our weather history database for the weather conditions in past years. The results will help you decide how hot, cold, wet, or windy it might be!

Date:

Astronomy

Nov. 29, 2012 Rise Set
Actual Time 7:09 AM CST 5:35 PM CST
Civil Twilight 6:43 AM CST 6:00 PM CST
Nautical Twilight 6:14 AM CST 6:30 PM CST
Astronomical Twilight 5:45 AM CST 6:58 PM CST
Moon 6:39 PM CST (11/29) 7:56 AM CST (11/29)
Length of Visible Light 11h 17m
Length of Day
10h 25m
Full, 99% of the Moon is Illuminated
Nov 29
Full
Dec 6
Last Quarter
Dec 13
New
Dec 19
First Quarter
Dec 28
Full

Hourly Weather History & Observations

Time (CST) Temp. Dew Point Humidity Pressure Visibility Wind Dir Wind Speed Gust Speed Precip Events Conditions
12:53 AM 44.1 °F 42.1 °F 93% 30.29 in 8.0 mi Calm Calm - N/A   Clear
1:53 AM 43.0 °F 41.0 °F 93% 30.27 in 6.0 mi Calm Calm - N/A   Clear
2:53 AM 43.0 °F 39.9 °F 89% 30.26 in 6.0 mi Calm Calm - N/A   Clear
3:35 AM 42.8 °F 41.0 °F 93% 30.25 in 6.0 mi Calm Calm - N/A   Mostly Cloudy
3:49 AM 42.8 °F 39.2 °F 87% 30.25 in 6.0 mi Calm Calm - N/A   Scattered Clouds
3:53 AM 44.1 °F 42.1 °F 93% 30.25 in 5.0 mi Calm Calm - N/A   Scattered Clouds
4:53 AM 42.1 °F 41.0 °F 96% 30.23 in 4.0 mi Calm Calm - N/A   Clear
5:53 AM 43.0 °F 42.1 °F 97% 30.23 in 4.0 mi Calm Calm - N/A   Clear
6:53 AM 45.0 °F 43.0 °F 93% 30.25 in 4.0 mi Calm Calm - N/A   Clear
7:53 AM 46.0 °F 45.0 °F 96% 30.26 in 5.0 mi Calm Calm - N/A   Scattered Clouds
8:53 AM 51.1 °F 48.0 °F 89% 30.26 in 4.0 mi ENE 4.6 mph - N/A   Clear
9:53 AM 57.0 °F 50.0 °F 77% 30.27 in 6.0 mi East 4.6 mph - N/A   Haze
10:53 AM 62.1 °F 51.1 °F 67% 30.25 in 8.0 mi Variable 3.5 mph - N/A   Clear
11:53 AM 64.9 °F 52.0 °F 63% 30.23 in 10.0 mi Variable 3.5 mph - N/A   Clear
12:53 PM 68.0 °F 53.1 °F 59% 30.19 in 10.0 mi SE 6.9 mph - N/A   Scattered Clouds
1:53 PM 70.0 °F 53.1 °F 55% 30.15 in 10.0 mi South 4.6 mph - N/A   Overcast
2:53 PM 70.0 °F 53.1 °F 55% 30.13 in 10.0 mi South 5.8 mph - N/A   Overcast
3:53 PM 70.0 °F 53.1 °F 55% 30.12 in 10.0 mi South 6.9 mph - N/A   Overcast
4:53 PM 69.1 °F 54.0 °F 58% 30.12 in 10.0 mi SSE 3.5 mph - N/A   Overcast
5:53 PM 68.0 °F 54.0 °F 61% 30.12 in 10.0 mi Calm Calm - N/A   Overcast
6:53 PM 66.0 °F 55.9 °F 70% 30.14 in 10.0 mi Calm Calm - N/A   Overcast
7:53 PM 64.9 °F 55.9 °F 73% 30.15 in 10.0 mi Calm Calm - N/A   Overcast
8:53 PM 66.0 °F 55.9 °F 70% 30.14 in 10.0 mi ESE 4.6 mph - N/A   Overcast
9:53 PM 64.9 °F 55.9 °F 73% 30.15 in 10.0 mi SSE 3.5 mph - N/A   Overcast
10:53 PM 64.0 °F 57.0 °F 78% 30.15 in 10.0 mi SSE 3.5 mph - N/A   Overcast
11:53 PM 63.0 °F 59.0 °F 87% 30.15 in 10.0 mi SE 4.6 mph - N/A   Overcast